Location: Hermaringen
(48.5952°N, 10.2585°E)
Time: 13:02:10
(UTC+00:00)

A-11 Canister half - Pass Details

Date: 23 February 2026
Orbit: 1513 x 1687 km, 47.2° (Epoch: 11 March)

Event Time Altitude Azimuth Distance (km) Brightness Sun altitude
Rises 03:14:24 0° 285° (WNW) 4,854 - -29.8°
Reaches altitude 10° 03:20:09 10° 260° (W) 3,820 - -28.9°
Maximum altitude 03:23:37 12° 238° (WSW) 3,595 - -28.4°
Drops below altitude 10° 03:27:04 10° 216° (SW) 3,762 - -27.8°
Sets 03:32:40 0° 190° (S) 4,701 - -27.0°
Exits shadow 03:32:52 - 189° (S) 4,748 11.3 -26.9°
